{"data":{"norad_id":48385,"epoch":"2026-09-19T16:52:01.855200Z","epoch_age_seconds":102510,"freshness":"FRESH","line1":"1 48385U 21038AJ  26262.70279925  .00001762  00000+0  68529-4 0  9990","line2":"2 48385  53.1593 162.5196 0000909  93.6626 266.4480 15.31694423298216","mean_motion":15.31694423,"eccentricity":9.09e-5,"inclination_deg":53.1593,"raan_deg":162.5196,"arg_perigee_deg":93.6626,"mean_anomaly_deg":266.448,"bstar":6.8529e-5,"rev_number":29821,"period_min":94.013530269281,"perigee_km":470.13405559283,"apogee_km":471.37918445295,"semimajor_km":6848.8936200229,"source":"CELESTRAK","updated_at":"2026-09-20T09:00:38.944802Z"}}